Date String (YYYY-MM-DD hh:mm:ss) UTC,Instrument flags,Ambient pressure (hPa),Sample flow (lpm),Bypass flow (lpm),Sample temperature (°C),Ambient temperature (°C),ASC tube jacket temperature (°C),LED temperature (°C),Box temperature (°C),Sample RH (%),Span deviation,Mass concentration (μg/m³),Mass concentration (μg/m³),Mass concentration (μg/m³)
DateTimeUTC,F1_M11,P_M11,Q1_M11,Q2_M11,T1_M11,T2_M11,T3_M11,T4_M11,T5_M11,U1_M11,ZSPAN_M11,X2_M11,X0_M11,X1_M11
2022-10-19 13:00:00,,0831.8,5.01,0.00,25.7,24.1,00.0,34.7,27.5,07.0,0000.0,0000.63,0001.77,0000.48
2022-10-19 13:01:00,,0831.8,4.99,0.00,25.7,24.2,00.0,34.7,27.5,07.0,0000.0,0000.64,0001.92,0000.47
2022-10-19 13:02:00,,0831.8,5.02,0.00,25.7,24.1,00.0,34.7,27.5,07.0,0000.0,0000.64,0001.94,0000.47
2022-10-19 13:03:00,,0831.8,4.99,0.00,25.7,24.1,00.0,34.6,27.5,07.0,0000.0,0000.65,0001.96,0000.47
2022-10-19 13:04:00,,0831.8,5.01,0.00,25.7,24.2,00.0,34.6,27.6,06.9,0000.0,0000.64,0002.01,0000.45
2022-10-19 13:05:00,,0831.7,5.00,0.00,25.7,24.1,00.0,34.6,27.5,06.9,0000.0,0000.61,0001.94,0000.44
2022-10-19 13:06:00,,0831.7,5.01,0.00,25.7,24.1,00.0,34.6,27.5,06.9,0000.0,0000.61,0001.93,0000.44
2022-10-19 13:07:00,,0831.7,5.01,0.00,25.7,24.1,00.0,34.6,27.5,06.9,0000.0,0000.60,0001.91,0000.44
2022-10-19 13:08:00,,0831.7,5.01,0.00,25.7,24.1,00.0,34.6,27.5,07.0,0000.0,0000.59,0001.60,0000.44
2022-10-19 13:09:00,,0831.8,4.99,0.00,25.7,24.1,00.0,34.6,27.5,07.0,0000.0,0000.57,0001.27,0000.44
2022-10-19 13:10:00,,0831.8,5.00,0.00,25.7,24.1,00.0,34.6,27.4,07.0,0000.0,0000.57,0001.27,0000.45
2022-10-19 13:11:00,,0831.9,5.01,0.00,25.7,24.1,00.0,34.6,27.5,07.1,0000.0,0000.56,0001.14,0000.45
2022-10-19 13:12:00,,0832.0,5.00,0.00,25.7,24.1,00.0,34.6,27.5,07.1,0000.0,0000.54,0000.83,0000.45
2022-10-19 13:13:00,,0831.9,5.00,0.00,25.7,24.1,00.0,34.6,27.4,07.1,0000.0,0000.54,0000.82,0000.46
2022-10-19 13:14:00,,0832.0,5.01,0.00,25.6,24.1,00.0,34.6,27.4,07.0,0000.0,0000.54,0000.82,0000.45
2022-10-19 13:15:00,,0832.0,4.99,0.00,25.7,24.1,00.0,34.6,27.5,07.0,0000.0,0000.56,0000.86,0000.45
2022-10-19 13:16:00,,0832.0,5.00,0.00,25.7,24.1,00.0,34.6,27.4,07.0,0000.0,0000.56,0000.92,0000.45
2022-10-19 13:17:00,,0832.0,5.01,0.00,25.7,24.1,00.0,34.6,27.5,07.0,0000.0,0000.55,0000.90,0000.45
2022-10-19 13:18:00,,0831.9,4.99,0.00,25.7,24.1,00.0,34.6,27.5,07.0,0000.0,0000.57,0000.99,0000.44
2022-10-19 13:19:00,,0832.0,5.00,0.00,25.7,24.1,00.0,34.6,27.5,07.0,0000.0,0000.59,0001.15,0000.45
2022-10-19 13:20:00,,0832.0,5.00,0.00,25.7,24.1,00.0,34.6,27.5,07.1,0000.0,0000.59,0001.27,0000.44
2022-10-19 13:21:00,,0832.0,5.00,0.00,25.7,24.1,00.0,34.6,27.5,07.1,0000.0,0000.59,0001.30,0000.44
2022-10-19 13:22:00,,0832.0,5.01,0.00,25.7,24.1,00.0,34.5,27.5,07.0,0000.0,0000.60,0001.31,0000.44
2022-10-19 13:23:00,,0831.9,4.99,0.00,25.7,24.1,00.0,34.5,27.5,07.0,0000.0,0000.61,0001.36,0000.44
2022-10-19 13:24:00,,0832.0,5.00,0.00,25.7,24.1,00.0,34.5,27.5,07.0,0000.0,0000.63,0001.44,0000.44
2022-10-19 13:25:00,,0832.0,5.01,0.00,25.6,24.1,00.0,34.5,27.5,06.9,0000.0,0000.64,0001.45,0000.43
2022-10-19 13:26:00,,0832.0,4.99,0.00,25.6,24.1,00.0,34.5,27.4,06.8,0000.0,0000.64,0001.35,0000.43
2022-10-19 13:27:00,,0832.0,5.02,0.00,25.6,24.1,00.0,34.5,27.5,06.9,0000.0,0000.64,0001.29,0000.44
2022-10-19 13:28:00,,0832.0,5.00,0.00,25.6,24.1,00.0,34.5,27.5,06.9,0000.0,0000.65,0001.33,0000.44
2022-10-19 13:29:00,,0831.9,5.00,0.00,25.6,24.1,00.0,34.5,27.5,06.9,0000.0,0000.63,0001.25,0000.43
2022-10-19 13:30:00,,0831.9,5.01,0.00,25.6,24.1,00.0,34.5,27.5,06.7,0000.0,0000.62,0001.10,0000.43
2022-10-19 13:31:00,,0832.0,4.99,0.00,25.6,24.1,00.0,34.5,27.5,06.7,0000.0,0000.62,0001.01,0000.43
2022-10-19 13:32:00,,0832.0,5.01,0.00,25.6,24.1,00.0,34.5,27.5,06.8,0000.0,0000.62,0000.98,0000.44
2022-10-19 13:33:00,,0832.0,4.99,0.00,25.6,24.1,00.0,34.5,27.5,06.6,0000.0,0000.63,0001.02,0000.44
2022-10-19 13:34:00,,0832.0,5.00,0.00,25.6,24.1,00.0,34.5,27.5,06.5,0000.0,0000.63,0000.99,0000.44
2022-10-19 13:35:00,,0832.0,5.00,0.00,25.6,24.1,00.0,34.5,27.5,06.6,0000.0,0000.60,0000.96,0000.43
2022-10-19 13:36:00,,0832.0,4.99,0.00,25.6,24.1,00.0,34.5,27.5,07.3,0000.0,0000.60,0000.95,0000.44
2022-10-19 13:37:00,,0831.9,5.00,0.00,25.6,24.1,00.0,34.5,27.5,07.1,0000.0,0000.60,0001.02,0000.44
2022-10-19 13:38:00,,0832.1,4.99,0.00,25.6,24.2,00.0,34.5,27.5,07.0,0000.0,0000.60,0001.01,0000.44
2022-10-19 13:39:00,,0832.1,5.00,0.00,25.6,24.2,00.0,34.5,27.5,07.4,0000.0,0000.60,0001.01,0000.45
2022-10-19 13:40:00,,0832.1,4.99,0.00,25.6,24.2,00.0,34.5,27.5,07.0,0000.0,0000.62,0001.05,0000.47
2022-10-19 13:41:00,,0832.1,5.01,0.00,25.6,24.2,00.0,34.5,27.5,06.8,0000.0,0000.66,0001.10,0000.48
2022-10-19 13:42:00,,0832.1,4.99,0.00,25.6,24.2,00.0,34.5,27.5,06.8,0000.0,0000.68,0001.15,0000.48
2022-10-19 13:43:00,,0832.1,4.99,0.00,25.6,24.2,00.0,34.5,27.5,06.8,0000.0,0000.67,0001.21,0000.47
2022-10-19 13:44:00,,0832.1,5.01,0.00,25.6,24.2,00.0,34.5,27.5,06.8,0000.0,0000.66,0001.18,0000.47
2022-10-19 13:45:00,,0832.1,4.98,0.00,25.7,24.2,00.0,34.5,27.6,06.8,0000.0,0000.66,0001.15,0000.48
2022-10-19 13:46:00,,0832.1,5.01,0.00,25.7,24.2,00.0,34.5,27.6,06.8,0000.0,0000.65,0001.09,0000.49
2022-10-19 13:47:00,,0832.0,4.99,0.00,25.7,24.2,00.0,34.5,27.6,06.8,0000.0,0000.65,0001.22,0000.48
2022-10-19 13:48:00,,0832.0,5.00,0.00,25.7,24.2,00.0,34.5,27.6,06.8,0000.0,0000.64,0001.16,0000.48
2022-10-19 13:49:00,,0832.0,4.99,0.00,25.7,24.2,00.0,34.5,27.6,06.8,0000.0,0000.64,0001.16,0000.48
2022-10-19 13:50:00,,0832.0,5.01,0.00,25.7,24.2,00.0,34.5,27.6,06.8,0000.0,0000.62,0001.11,0000.47
2022-10-19 13:51:00,,0832.0,5.01,0.00,25.7,24.3,00.0,34.5,27.6,06.8,0000.0,0000.62,0001.12,0000.46
2022-10-19 13:52:00,,0832.0,5.00,0.00,25.7,24.3,00.0,34.5,27.6,06.8,0000.0,0000.61,0001.10,0000.46
2022-10-19 13:53:00,,0832.1,4.99,0.00,25.7,24.3,00.0,34.5,27.6,06.9,0000.0,0000.60,0001.14,0000.45
2022-10-19 13:54:00,,0832.1,5.02,0.00,25.7,24.3,00.0,34.5,27.6,06.9,0000.0,0000.60,0001.62,0000.45
2022-10-19 13:55:00,,0832.1,4.98,0.00,25.7,24.3,00.0,34.5,27.6,06.9,0000.0,0000.60,0001.66,0000.45
2022-10-19 13:56:00,,0832.1,5.01,0.00,25.7,24.3,00.0,34.5,27.6,06.8,0000.0,0000.60,0001.71,0000.45
2022-10-19 13:57:00,,0832.1,4.99,0.00,25.7,24.3,00.0,34.5,27.6,07.1,0000.0,0000.63,0001.93,0000.45
2022-10-19 13:58:00,,0832.1,5.02,0.00,25.7,24.3,00.0,34.5,27.6,07.3,0000.0,0000.67,0001.94,0000.48
2022-10-19 13:59:00,,0832.1,4.99,0.00,25.7,24.3,00.0,34.5,27.6,07.3,0000.0,0000.68,0002.02,0000.48
